Time,TemperatureF,DewpointF,PressureIn,WindDirection,WindDirectionDegrees,WindSpeedMPH,WindSpeedGustMPH,Humidity,HourlyPrecipIn,Conditions,Clouds,dailyrainin,SoftwareType,DateUTC
2013-02-24 00:01:00,37.5,35.9,29.71,ENE,77,0.0,0.0,94,0.00,,,0.00,Wunderground v.1.15,2013-02-24 05:01:00,
2013-02-24 00:06:00,37.5,35.9,29.71,NNE,14,0.0,0.0,94,0.00,,,0.00,Wunderground v.1.15,2013-02-24 05:06:00,
2013-02-24 00:11:00,37.5,35.9,29.71,NNE,14,1.0,1.0,94,0.00,,,0.00,Wunderground v.1.15,2013-02-24 05:11:00,
2013-02-24 00:16:00,37.5,35.9,29.72,NNE,14,1.0,2.0,94,0.00,,,0.00,Wunderground v.1.15,2013-02-24 05:16:00,
2013-02-24 00:21:00,37.5,35.9,29.72,NNE,14,1.0,2.0,94,0.00,,,0.00,Wunderground v.1.15,2013-02-24 05:21:00,
2013-02-24 00:26:00,37.5,35.9,29.72,NNE,14,1.0,2.0,94,0.00,,,0.00,Wunderground v.1.15,2013-02-24 05:26:00,
2013-02-24 00:31:00,37.3,35.7,29.73,NNE,14,1.0,2.0,94,0.00,,,0.00,Wunderground v.1.15,2013-02-24 05:31:00,
2013-02-24 00:41:00,37.3,35.7,29.73,NNE,14,1.0,1.0,94,0.00,,,0.00,Wunderground v.1.15,2013-02-24 05:41:00,
2013-02-24 00:46:00,37.3,35.7,29.73,NNE,14,1.0,1.0,94,0.00,,,0.00,Wunderground v.1.15,2013-02-24 05:46:00,
2013-02-24 00:56:00,37.2,35.6,29.73,NNE,13,0.0,1.0,94,0.00,,,0.00,Wunderground v.1.15,2013-02-24 05:56:00,
2013-02-24 01:01:00,37.2,35.6,29.72,NNE,14,0.0,0.0,94,0.00,,,0.00,Wunderground v.1.15,2013-02-24 06:01:00,
2013-02-24 01:06:00,37.2,35.6,29.72,NNE,14,1.0,1.0,94,0.00,,,0.00,Wunderground v.1.15,2013-02-24 06:06:00,
2013-02-24 01:11:00,37.2,35.6,29.72,NNE,14,1.0,1.0,94,0.00,,,0.00,Wunderground v.1.15,2013-02-24 06:11:00,
2013-02-24 01:21:00,37.0,35.4,29.71,NNE,14,1.0,1.0,94,0.00,,,0.00,Wunderground v.1.15,2013-02-24 06:21:00,
2013-02-24 01:26:00,37.0,35.4,29.71,NNE,14,1.0,1.0,94,0.00,,,0.00,Wunderground v.1.15,2013-02-24 06:26:00,
2013-02-24 01:31:00,37.0,35.4,29.72,NNE,14,0.0,0.0,94,0.00,,,0.00,Wunderground v.1.15,2013-02-24 06:31:00,
2013-02-24 01:36:00,37.0,35.4,29.72,NNE,14,0.0,0.0,94,0.00,,,0.00,Wunderground v.1.15,2013-02-24 06:36:00,
2013-02-24 01:41:00,37.0,35.4,29.72,NNE,14,0.0,1.0,94,0.00,,,0.00,Wunderground v.1.15,2013-02-24 06:41:00,
2013-02-24 01:46:00,37.0,35.4,29.71,NNE,14,0.0,1.0,94,0.00,,,0.00,Wunderground v.1.15,2013-02-24 06:46:00,
2013-02-24 01:51:00,37.0,35.4,29.71,NNE,14,0.0,0.0,94,0.00,,,0.00,Wunderground v.1.15,2013-02-24 06:51:00,
2013-02-24 01:56:00,37.0,35.4,29.71,NNE,14,0.0,0.0,94,0.00,,,0.00,Wunderground v.1.15,2013-02-24 06:56:00,
2013-02-24 02:06:00,37.0,35.4,29.71,NNE,14,0.0,0.0,94,0.00,,,0.00,Wunderground v.1.15,2013-02-24 07:06:00,
2013-02-24 02:11:00,37.0,35.4,29.71,NNE,14,0.0,0.0,94,0.00,,,0.00,Wunderground v.1.15,2013-02-24 07:11:00,
2013-02-24 02:16:00,37.0,35.4,29.73,NNE,14,0.0,0.0,94,0.00,,,0.00,Wunderground v.1.15,2013-02-24 07:16:00,
2013-02-24 02:21:00,37.0,35.4,29.73,NNE,13,0.0,0.0,94,0.00,,,0.00,Wunderground v.1.15,2013-02-24 07:21:00,
2013-02-24 02:26:00,37.0,35.4,29.73,NNE,14,0.0,1.0,94,0.00,,,0.00,Wunderground v.1.15,2013-02-24 07:26:00,
2013-02-24 02:31:00,37.0,35.4,29.73,NNE,13,0.0,0.0,94,0.00,,,0.00,Wunderground v.1.15,2013-02-24 07:31:00,
2013-02-24 02:36:00,37.0,35.4,29.73,NNE,14,0.0,0.0,94,0.00,,,0.00,Wunderground v.1.15,2013-02-24 07:36:00,
2013-02-24 02:41:00,37.2,35.6,29.73,NNE,13,0.0,1.0,94,0.00,,,0.00,Wunderground v.1.15,2013-02-24 07:41:00,
2013-02-24 02:46:00,37.2,35.6,29.73,NNE,14,0.0,1.0,94,0.00,,,0.00,Wunderground v.1.15,2013-02-24 07:46:00,
2013-02-24 02:56:00,37.2,35.6,29.73,NNE,14,0.0,0.0,94,0.00,,,0.00,Wunderground v.1.15,2013-02-24 07:56:00,
2013-02-24 03:01:00,37.2,35.6,29.71,NNE,13,0.0,0.0,94,0.00,,,0.00,Wunderground v.1.15,2013-02-24 08:01:00,
2013-02-24 03:06:00,37.0,35.4,29.71,NNE,14,0.0,0.0,94,0.00,,,0.00,Wunderground v.1.15,2013-02-24 08:06:00,
2013-02-24 03:11:00,37.0,35.4,29.71,NNE,13,0.0,0.0,94,0.00,,,0.00,Wunderground v.1.15,2013-02-24 08:11:00,
2013-02-24 03:16:00,37.0,35.4,29.71,NNE,14,0.0,0.0,94,0.00,,,0.00,Wunderground v.1.15,2013-02-24 08:16:00,
2013-02-24 03:21:00,37.0,35.4,29.71,NNE,14,0.0,0.0,94,0.00,,,0.00,Wunderground v.1.15,2013-02-24 08:21:00,
2013-02-24 03:26:00,37.0,35.4,29.71,NNE,13,0.0,1.0,94,0.00,,,0.00,Wunderground v.1.15,2013-02-24 08:26:00,
2013-02-24 03:31:00,37.0,35.4,29.69,NNE,14,1.0,1.0,94,0.00,,,0.00,Wunderground v.1.15,2013-02-24 08:31:00,
2013-02-24 03:41:00,36.9,35.3,29.69,NNE,14,0.0,0.0,94,0.00,,,0.00,Wunderground v.1.15,2013-02-24 08:41:00,
2013-02-24 03:46:00,36.8,35.2,29.68,NNE,14,0.0,0.0,94,0.00,,,0.00,Wunderground v.1.15,2013-02-24 08:46:00,
2013-02-24 03:51:00,36.8,35.2,29.68,NNE,14,0.0,0.0,94,0.00,,,0.00,Wunderground v.1.15,2013-02-24 08:51:00,
2013-02-24 03:56:00,36.6,35.0,29.68,NNE,14,0.0,1.0,94,0.00,,,0.00,Wunderground v.1.15,2013-02-24 08:56:00,
2013-02-24 04:01:00,36.6,35.0,29.68,NNE,14,0.0,0.0,94,0.00,,,0.00,Wunderground v.1.15,2013-02-24 09:01:00,
2013-02-24 04:06:00,36.5,34.9,29.68,NNE,14,0.0,0.0,94,0.00,,,0.00,Wunderground v.1.15,2013-02-24 09:06:00,
2013-02-24 04:11:00,36.6,35.0,29.68,NW,324,0.0,4.0,94,0.00,,,0.00,Wunderground v.1.15,2013-02-24 09:11:00,
2013-02-24 04:21:00,36.6,35.0,29.68,NW,324,0.0,0.0,94,0.00,,,0.00,Wunderground v.1.15,2013-02-24 09:21:00,
2013-02-24 04:31:00,36.8,35.2,29.68,NW,324,0.0,0.0,94,0.00,,,0.00,Wunderground v.1.15,2013-02-24 09:31:00,
2013-02-24 04:36:00,36.8,35.2,29.68,NW,324,0.0,0.0,94,0.00,,,0.00,Wunderground v.1.15,2013-02-24 09:36:00,
2013-02-24 04:41:00,36.9,35.3,29.68,NW,324,0.0,0.0,94,0.00,,,0.00,Wunderground v.1.15,2013-02-24 09:41:00,
2013-02-24 04:46:00,36.9,35.3,29.69,NW,324,0.0,1.0,94,0.00,,,0.00,Wunderground v.1.15,2013-02-24 09:46:00,
2013-02-24 04:56:00,36.9,35.3,29.69,NW,324,0.0,0.0,94,0.00,,,0.00,Wunderground v.1.15,2013-02-24 09:56:00,
2013-02-24 05:01:00,36.9,35.3,29.68,NW,324,0.0,0.0,94,0.00,,,0.00,Wunderground v.1.15,2013-02-24 10:01:00,
2013-02-24 05:06:00,36.9,35.3,29.68,NW,324,0.0,0.0,94,0.00,,,0.00,Wunderground v.1.15,2013-02-24 10:06:00,
2013-02-24 05:16:00,36.9,35.3,29.69,WNW,301,0.0,2.0,94,0.00,,,0.00,Wunderground v.1.15,2013-02-24 10:16:00,
2013-02-24 05:21:00,36.9,35.3,29.69,NW,317,0.0,0.0,94,0.00,,,0.00,Wunderground v.1.15,2013-02-24 10:21:00,
2013-02-24 05:26:00,36.9,35.3,29.69,NW,317,0.0,0.0,94,0.00,,,0.00,Wunderground v.1.15,2013-02-24 10:26:00,
2013-02-24 05:31:00,36.9,35.3,29.70,NW,318,0.0,0.0,94,0.00,,,0.00,Wunderground v.1.15,2013-02-24 10:31:00,
2013-02-24 05:36:00,36.9,35.3,29.70,NW,318,0.0,0.0,94,0.00,,,0.00,Wunderground v.1.15,2013-02-24 10:36:00,
2013-02-24 05:41:00,36.9,35.3,29.70,NW,320,0.0,0.0,94,0.00,,,0.00,Wunderground v.1.15,2013-02-24 10:41:00,
2013-02-24 05:46:00,36.9,35.3,29.70,NNE,16,1.0,2.0,94,0.00,,,0.00,Wunderground v.1.15,2013-02-24 10:46:00,
2013-02-24 05:51:00,36.9,35.3,29.70,North,350,1.0,2.0,94,0.00,,,0.00,Wunderground v.1.15,2013-02-24 10:51:00,
2013-02-24 05:56:00,36.8,35.2,29.70,NNW,347,1.0,3.0,94,0.00,,,0.00,Wunderground v.1.15,2013-02-24 10:56:00,
2013-02-24 06:06:00,36.6,35.0,29.69,North,360,1.0,1.0,94,0.00,,,0.00,Wunderground v.1.15,2013-02-24 11:06:00,
2013-02-24 06:11:00,36.5,34.9,29.69,NNW,329,0.0,0.0,94,0.00,,,0.00,Wunderground v.1.15,2013-02-24 11:11:00,
2013-02-24 06:16:00,36.5,34.9,29.69,NNW,328,1.0,1.0,94,0.00,,,0.00,Wunderground v.1.15,2013-02-24 11:16:00,
2013-02-24 06:21:00,36.3,34.7,29.69,NNW,333,0.0,0.0,94,0.00,,,0.00,Wunderground v.1.15,2013-02-24 11:21:00,
2013-02-24 06:26:00,36.2,34.6,29.69,NNW,333,0.0,0.0,94,0.00,,,0.00,Wunderground v.1.15,2013-02-24 11:26:00,
2013-02-24 06:31:00,36.0,34.4,29.69,NNW,333,0.0,1.0,94,0.00,,,0.00,Wunderground v.1.15,2013-02-24 11:31:00,
2013-02-24 06:36:00,36.0,34.4,29.69,NNW,332,0.0,1.0,94,0.00,,,0.00,Wunderground v.1.15,2013-02-24 11:36:00,
2013-02-24 06:41:00,36.0,34.4,29.69,NNW,332,0.0,0.0,94,0.00,,,0.00,Wunderground v.1.15,2013-02-24 11:41:00,
2013-02-24 06:51:00,35.9,34.3,29.69,North,360,0.0,0.0,94,0.00,,,0.00,Wunderground v.1.15,2013-02-24 11:51:00,
2013-02-24 06:56:00,35.8,34.2,29.69,East,95,0.0,0.0,94,0.00,,,0.00,Wunderground v.1.15,2013-02-24 11:56:00,
2013-02-24 07:01:00,35.6,34.0,29.69,East,95,0.0,1.0,94,0.00,,,0.00,Wunderground v.1.15,2013-02-24 12:01:00,
2013-02-24 07:06:00,35.6,34.0,29.69,East,80,0.0,1.0,94,0.00,,,0.00,Wunderground v.1.15,2013-02-24 12:06:00,
2013-02-24 07:11:00,35.5,33.9,29.69,East,80,0.0,0.0,94,0.00,,,0.00,Wunderground v.1.15,2013-02-24 12:11:00,
2013-02-24 07:16:00,35.6,34.0,29.69,East,80,0.0,0.0,94,0.00,,,0.00,Wunderground v.1.15,2013-02-24 12:16:00,
2013-02-24 07:21:00,35.6,34.0,29.69,NNW,328,0.0,0.0,94,0.00,,,0.00,Wunderground v.1.15,2013-02-24 12:21:00,
2013-02-24 07:26:00,35.8,34.2,29.69,NW,319,1.0,1.0,94,0.00,,,0.00,Wunderground v.1.15,2013-02-24 12:26:00,
2013-02-24 07:36:00,35.9,34.3,29.70,North,360,1.0,2.0,94,0.00,,,0.00,Wunderground v.1.15,2013-02-24 12:36:00,
2013-02-24 07:41:00,35.9,34.3,29.70,NW,315,1.0,2.0,94,0.00,,,0.00,Wunderground v.1.15,2013-02-24 12:41:00,
2013-02-24 07:46:00,35.9,34.3,29.71,NW,320,1.0,2.0,94,0.00,,,0.00,Wunderground v.1.15,2013-02-24 12:46:00,
2013-02-24 07:51:00,36.0,34.4,29.71,NW,320,0.0,0.0,94,0.00,,,0.00,Wunderground v.1.15,2013-02-24 12:51:00,
2013-02-24 07:56:00,36.3,35.0,29.71,NW,320,1.0,1.0,95,0.00,,,0.00,Wunderground v.1.15,2013-02-24 12:56:00,
2013-02-24 08:01:00,36.6,35.3,29.71,NNW,340,1.0,3.0,95,0.00,,,0.00,Wunderground v.1.15,2013-02-24 13:01:00,
2013-02-24 08:06:00,36.9,35.6,29.71,NNW,337,1.0,1.0,95,0.00,,,0.00,Wunderground v.1.15,2013-02-24 13:06:00,
2013-02-24 08:11:00,37.2,35.9,29.71,NNW,337,1.0,1.0,95,0.00,,,0.00,Wunderground v.1.15,2013-02-24 13:11:00,
2013-02-24 08:21:00,37.9,36.6,29.71,NW,324,1.0,1.0,95,0.00,,,0.00,Wunderground v.1.15,2013-02-24 13:21:00,
2013-02-24 08:26:00,38.0,36.4,29.71,NNW,348,1.0,1.0,94,0.00,,,0.00,Wunderground v.1.15,2013-02-24 13:26:00,
2013-02-24 08:31:00,38.2,36.9,29.72,North,349,1.0,1.0,95,0.00,,,0.00,Wunderground v.1.15,2013-02-24 13:31:00,
2013-02-24 08:36:00,38.5,37.2,29.72,NW,304,1.0,1.0,95,0.00,,,0.00,Wunderground v.1.15,2013-02-24 13:36:00,
2013-02-24 08:41:00,38.6,37.3,29.72,NW,321,1.0,5.0,95,0.00,,,0.00,Wunderground v.1.15,2013-02-24 13:41:00,
2013-02-24 08:46:00,38.8,37.2,29.71,NW,320,1.0,5.0,94,0.00,,,0.00,Wunderground v.1.15,2013-02-24 13:46:00,
2013-02-24 08:56:00,39.5,38.2,29.71,NNE,25,1.0,1.0,95,0.00,,,0.00,Wunderground v.1.15,2013-02-24 13:56:00,
2013-02-24 09:01:00,39.6,38.3,29.72,WNW,294,1.0,4.0,95,0.00,,,0.00,Wunderground v.1.15,2013-02-24 14:01:00,
2013-02-24 09:06:00,40.1,38.8,29.72,NW,306,2.0,4.0,95,0.00,,,0.00,Wunderground v.1.15,2013-02-24 14:06:00,
2013-02-24 09:11:00,40.5,39.2,29.72,NW,313,1.0,1.0,95,0.00,,,0.00,Wunderground v.1.15,2013-02-24 14:11:00,
2013-02-24 09:16:00,40.8,39.5,29.72,WNW,302,1.0,2.0,95,0.00,,,0.00,Wunderground v.1.15,2013-02-24 14:16:00,
2013-02-24 09:26:00,41.2,39.6,29.72,NNW,342,1.0,4.0,94,0.00,,,0.00,Wunderground v.1.15,2013-02-24 14:26:00,
2013-02-24 09:36:00,41.5,39.9,29.71,NW,314,3.0,4.0,94,0.00,,,0.00,Wunderground v.1.15,2013-02-24 14:36:00,
2013-02-24 09:41:00,41.8,40.2,29.71,NW,319,2.0,5.0,94,0.00,,,0.00,Wunderground v.1.15,2013-02-24 14:41:00,
2013-02-24 09:46:00,41.9,40.3,29.71,WNW,292,3.0,5.0,94,0.00,,,0.00,Wunderground v.1.15,2013-02-24 14:46:00,
2013-02-24 09:51:00,42.3,40.7,29.71,North,360,2.0,2.0,94,0.00,,,0.00,Wunderground v.1.15,2013-02-24 14:51:00,
2013-02-24 09:56:00,42.8,41.2,29.71,NNW,327,1.0,5.0,94,0.00,,,0.00,Wunderground v.1.15,2013-02-24 14:56:00,
2013-02-24 10:01:00,42.8,40.9,29.71,NNE,15,2.0,6.0,93,0.00,,,0.00,Wunderground v.1.15,2013-02-24 15:01:00,
2013-02-24 10:11:00,42.9,41.0,29.71,NNW,347,3.0,3.0,93,0.00,,,0.00,Wunderground v.1.15,2013-02-24 15:11:00,
2013-02-24 10:16:00,43.5,41.6,29.71,NW,308,2.0,3.0,93,0.00,,,0.00,Wunderground v.1.15,2013-02-24 15:16:00,
2013-02-24 10:21:00,43.9,42.0,29.71,North,351,3.0,6.0,93,0.00,,,0.00,Wunderground v.1.15,2013-02-24 15:21:00,
2013-02-24 10:26:00,43.8,41.6,29.71,NNW,344,3.0,6.0,92,0.00,,,0.00,Wunderground v.1.15,2013-02-24 15:26:00,
2013-02-24 10:31:00,44.1,41.6,29.71,NNE,24,3.0,5.0,91,0.00,,,0.00,Wunderground v.1.15,2013-02-24 15:31:00,
2013-02-24 10:36:00,44.2,41.5,29.71,NNE,27,4.0,5.0,90,0.00,,,0.00,Wunderground v.1.15,2013-02-24 15:36:00,
2013-02-24 10:46:00,44.6,41.3,29.71,NNW,327,4.0,6.0,88,0.00,,,0.00,Wunderground v.1.15,2013-02-24 15:46:00,
2013-02-24 10:51:00,44.9,41.0,29.71,NW,318,3.0,3.0,86,0.00,,,0.00,Wunderground v.1.15,2013-02-24 15:51:00,
2013-02-24 10:56:00,45.4,40.5,29.71,NNW,345,3.0,6.0,83,0.00,,,0.00,Wunderground v.1.15,2013-02-24 15:56:00,
2013-02-24 11:01:00,45.2,39.1,29.72,NNE,17,4.0,8.0,79,0.00,,,0.00,Wunderground v.1.15,2013-02-24 16:01:00,
2013-02-24 11:06:00,45.2,37.7,29.72,North,360,4.0,8.0,75,0.00,,,0.00,Wunderground v.1.15,2013-02-24 16:06:00,
2013-02-24 11:11:00,45.2,36.4,29.72,North,360,3.0,5.0,71,0.00,,,0.00,Wunderground v.1.15,2013-02-24 16:11:00,
2013-02-24 11:16:00,45.4,35.5,29.72,North,360,4.0,5.0,68,0.00,,,0.00,Wunderground v.1.15,2013-02-24 16:16:00,
2013-02-24 11:26:00,45.4,33.5,29.72,North,355,5.0,11.0,63,0.00,,,0.00,Wunderground v.1.15,2013-02-24 16:26:00,
2013-02-24 11:31:00,45.2,32.9,29.72,NNW,336,5.0,6.0,62,0.00,,,0.00,Wunderground v.1.15,2013-02-24 16:31:00,
2013-02-24 11:36:00,45.4,33.1,29.72,NNW,344,3.0,6.0,62,0.00,,,0.00,Wunderground v.1.15,2013-02-24 16:36:00,
2013-02-24 11:41:00,45.5,33.2,29.72,NW,309,2.0,2.0,62,0.00,,,0.00,Wunderground v.1.15,2013-02-24 16:41:00,
2013-02-24 11:46:00,45.4,32.3,29.71,North,360,4.0,6.0,60,0.00,,,0.00,Wunderground v.1.15,2013-02-24 16:46:00,
2013-02-24 11:51:00,46.0,32.9,29.71,North,360,4.0,4.0,60,0.00,,,0.00,Wunderground v.1.15,2013-02-24 16:51:00,
2013-02-24 11:56:00,46.7,33.5,29.71,West,279,4.0,4.0,60,0.00,,,0.00,Wunderground v.1.15,2013-02-24 16:56:00,
2013-02-24 12:06:00,47.3,32.8,29.71,NW,315,4.0,5.0,57,0.00,,,0.00,Wunderground v.1.15,2013-02-24 17:06:00,
2013-02-24 12:11:00,47.1,32.2,29.71,NNW,327,4.0,4.0,56,0.00,,,0.00,Wunderground v.1.15,2013-02-24 17:11:00,
2013-02-24 12:16:00,47.0,32.1,29.71,WNW,300,4.0,4.0,56,0.00,,,0.00,Wunderground v.1.15,2013-02-24 17:16:00,
2013-02-24 12:21:00,46.8,32.4,29.71,NNE,19,3.0,8.0,57,0.00,,,0.00,Wunderground v.1.15,2013-02-24 17:21:00,
2013-02-24 12:26:00,46.7,32.7,29.71,NNW,338,4.0,8.0,58,0.00,,,0.00,Wunderground v.1.15,2013-02-24 17:26:00,
2013-02-24 12:36:00,46.8,31.9,29.71,NNW,347,4.0,5.0,56,0.00,,,0.00,Wunderground v.1.15,2013-02-24 17:36:00,
2013-02-24 12:41:00,46.2,30.5,29.71,NW,304,5.0,8.0,54,0.00,,,0.00,Wunderground v.1.15,2013-02-24 17:41:00,
2013-02-24 12:46:00,46.4,31.5,29.70,North,9,6.0,8.0,56,0.00,,,0.00,Wunderground v.1.15,2013-02-24 17:46:00,
2013-02-24 12:51:00,46.7,31.4,29.70,NW,320,5.0,10.0,55,0.00,,,0.00,Wunderground v.1.15,2013-02-24 17:51:00,
2013-02-24 12:56:00,46.5,31.2,29.70,NNE,13,5.0,10.0,55,0.00,,,0.00,Wunderground v.1.15,2013-02-24 17:56:00,
2013-02-24 13:01:00,46.1,30.4,29.70,SW,232,5.0,5.0,54,0.00,,,0.00,Wunderground v.1.15,2013-02-24 18:01:00,
2013-02-24 13:06:00,45.7,30.0,29.70,WNW,290,5.0,5.0,54,0.00,,,0.00,Wunderground v.1.15,2013-02-24 18:06:00,
2013-02-24 13:16:00,45.7,30.4,29.71,WNW,300,3.0,5.0,55,0.00,,,0.00,Wunderground v.1.15,2013-02-24 18:16:00,
2013-02-24 13:21:00,46.0,30.7,29.71,NNW,347,2.0,8.0,55,0.00,,,0.00,Wunderground v.1.15,2013-02-24 18:21:00,
2013-02-24 13:26:00,46.1,30.8,29.71,WNW,302,3.0,8.0,55,0.00,,,0.00,Wunderground v.1.15,2013-02-24 18:26:00,
2013-02-24 13:31:00,45.7,30.0,29.71,NW,317,4.0,7.0,54,0.00,,,0.00,Wunderground v.1.15,2013-02-24 18:31:00,
2013-02-24 13:36:00,45.4,30.6,29.71,NNE,23,5.0,7.0,56,0.00,,,0.00,Wunderground v.1.15,2013-02-24 18:36:00,
2013-02-24 13:41:00,45.1,30.3,29.71,NNE,13,5.0,5.0,56,0.00,,,0.00,Wunderground v.1.15,2013-02-24 18:41:00,
2013-02-24 13:51:00,44.3,29.1,29.71,WNW,302,5.0,5.0,55,0.00,,,0.00,Wunderground v.1.15,2013-02-24 18:51:00,
2013-02-24 13:56:00,44.5,29.8,29.71,North,360,4.0,5.0,56,0.00,,,0.00,Wunderground v.1.15,2013-02-24 18:56:00,
2013-02-24 14:01:00,44.5,29.8,29.70,NNE,13,4.0,4.0,56,0.00,,,0.00,Wunderground v.1.15,2013-02-24 19:01:00,
2013-02-24 14:06:00,44.8,29.6,29.70,NNW,347,3.0,5.0,55,0.00,,,0.00,Wunderground v.1.15,2013-02-24 19:06:00,
2013-02-24 14:11:00,44.9,29.7,29.70,NW,307,3.0,6.0,55,0.00,,,0.00,Wunderground v.1.15,2013-02-24 19:11:00,
2013-02-24 14:16:00,44.9,29.7,29.70,NNW,338,3.0,6.0,55,0.00,,,0.00,Wunderground v.1.15,2013-02-24 19:16:00,
2013-02-24 14:26:00,44.8,29.6,29.70,NW,305,3.0,4.0,55,0.00,,,0.00,Wunderground v.1.15,2013-02-24 19:26:00,
2013-02-24 14:31:00,44.6,29.0,29.71,NNW,338,4.0,7.0,54,0.00,,,0.00,Wunderground v.1.15,2013-02-24 19:31:00,
2013-02-24 14:36:00,44.3,28.7,29.71,NNW,343,5.0,7.0,54,0.00,,,0.00,Wunderground v.1.15,2013-02-24 19:36:00,
2013-02-24 14:41:00,44.1,28.9,29.71,NNW,345,5.0,5.0,55,0.00,,,0.00,Wunderground v.1.15,2013-02-24 19:41:00,
2013-02-24 14:46:00,43.8,28.7,29.71,WNW,288,4.0,5.0,55,0.00,,,0.00,Wunderground v.1.15,2013-02-24 19:46:00,
2013-02-24 14:51:00,43.5,27.5,29.71,NNW,348,5.0,9.0,53,0.00,,,0.00,Wunderground v.1.15,2013-02-24 19:51:00,
2013-02-24 14:56:00,43.1,27.6,29.71,NW,317,5.0,9.0,54,0.00,,,0.00,Wunderground v.1.15,2013-02-24 19:56:00,
2013-02-24 15:06:00,44.1,28.5,29.72,NW,309,4.0,5.0,54,0.00,,,0.00,Wunderground v.1.15,2013-02-24 20:06:00,
2013-02-24 15:11:00,44.5,27.5,29.72,WNW,288,4.0,4.0,51,0.00,,,0.00,Wunderground v.1.15,2013-02-24 20:11:00,
2013-02-24 15:16:00,43.9,26.4,29.73,North,351,5.0,5.0,50,0.00,,,0.00,Wunderground v.1.15,2013-02-24 20:16:00,
2013-02-24 15:21:00,43.5,26.1,29.73,NW,304,5.0,5.0,50,0.00,,,0.00,Wunderground v.1.15,2013-02-24 20:21:00,
2013-02-24 15:26:00,43.2,26.3,29.73,NW,309,4.0,5.0,51,0.00,,,0.00,Wunderground v.1.15,2013-02-24 20:26:00,
2013-02-24 15:31:00,43.1,26.2,29.74,WNW,296,4.0,4.0,51,0.00,,,0.00,Wunderground v.1.15,2013-02-24 20:31:00,
2013-02-24 15:41:00,42.6,25.7,29.74,WNW,296,5.0,5.0,51,0.00,,,0.00,Wunderground v.1.15,2013-02-24 20:41:00,
2013-02-24 15:46:00,42.5,25.6,29.74,WNW,291,4.0,6.0,51,0.00,,,0.00,Wunderground v.1.15,2013-02-24 20:46:00,
2013-02-24 15:51:00,42.2,25.3,29.74,WNW,298,4.0,4.0,51,0.00,,,0.00,Wunderground v.1.15,2013-02-24 20:51:00,
2013-02-24 15:56:00,42.2,25.8,29.74,North,351,4.0,6.0,52,0.00,,,0.00,Wunderground v.1.15,2013-02-24 20:56:00,
2013-02-24 16:01:00,41.8,25.4,29.75,NNW,333,5.0,7.0,52,0.00,,,0.00,Wunderground v.1.15,2013-02-24 21:01:00,
2013-02-24 16:06:00,41.2,24.9,29.75,NNW,346,6.0,8.0,52,0.00,,,0.00,Wunderground v.1.15,2013-02-24 21:06:00,
2013-02-24 16:16:00,40.6,24.8,29.76,NNW,331,6.0,10.0,53,0.00,,,0.00,Wunderground v.1.15,2013-02-24 21:16:00,
2013-02-24 16:21:00,40.5,24.7,29.76,West,265,5.0,6.0,53,0.00,,,0.00,Wunderground v.1.15,2013-02-24 21:21:00,
2013-02-24 16:26:00,40.2,24.9,29.76,NW,320,5.0,6.0,54,0.00,,,0.00,Wunderground v.1.15,2013-02-24 21:26:00,
2013-02-24 16:31:00,40.1,24.8,29.77,NNW,329,5.0,5.0,54,0.00,,,0.00,Wunderground v.1.15,2013-02-24 21:31:00,
2013-02-24 16:36:00,39.9,24.1,29.77,NNW,346,5.0,9.0,53,0.00,,,0.00,Wunderground v.1.15,2013-02-24 21:36:00,
2013-02-24 16:41:00,39.8,24.0,29.77,WNW,290,6.0,6.0,53,0.00,,,0.00,Wunderground v.1.15,2013-02-24 21:41:00,
2013-02-24 16:46:00,39.6,24.3,29.78,West,259,4.0,7.0,54,0.00,,,0.00,Wunderground v.1.15,2013-02-24 21:46:00,
2013-02-24 16:56:00,39.3,24.0,29.78,WNW,297,4.0,8.0,54,0.00,,,0.00,Wunderground v.1.15,2013-02-24 21:56:00,
2013-02-24 17:06:00,39.1,23.4,29.79,WNW,286,6.0,6.0,53,0.00,,,0.00,Wunderground v.1.15,2013-02-24 22:06:00,
2013-02-24 17:11:00,39.1,23.4,29.79,NW,310,4.0,4.0,53,0.00,,,0.00,Wunderground v.1.15,2013-02-24 22:11:00,
2013-02-24 17:16:00,38.9,23.2,29.79,NW,310,4.0,4.0,53,0.00,,,0.00,Wunderground v.1.15,2013-02-24 22:16:00,
2013-02-24 17:21:00,38.6,23.4,29.79,NW,307,5.0,5.0,54,0.00,,,0.00,Wunderground v.1.15,2013-02-24 22:21:00,
2013-02-24 17:26:00,38.3,22.6,29.79,NW,325,6.0,6.0,53,0.00,,,0.00,Wunderground v.1.15,2013-02-24 22:26:00,
2013-02-24 17:31:00,38.0,22.8,29.80,WNW,302,6.0,6.0,54,0.00,,,0.00,Wunderground v.1.15,2013-02-24 22:31:00,
2013-02-24 17:41:00,37.6,22.4,29.80,North,360,5.0,5.0,54,0.00,,,0.00,Wunderground v.1.15,2013-02-24 22:41:00,
2013-02-24 17:46:00,37.5,22.3,29.81,NNW,342,6.0,6.0,54,0.00,,,0.00,Wunderground v.1.15,2013-02-24 22:46:00,
2013-02-24 17:51:00,37.3,22.2,29.81,North,350,6.0,6.0,54,0.00,,,0.00,Wunderground v.1.15,2013-02-24 22:51:00,
2013-02-24 17:56:00,37.3,22.2,29.81,North,360,5.0,6.0,54,0.00,,,0.00,Wunderground v.1.15,2013-02-24 22:56:00,
2013-02-24 18:01:00,37.2,22.5,29.83,WNW,297,5.0,5.0,55,0.00,,,0.00,Wunderground v.1.15,2013-02-24 23:01:00,
2013-02-24 18:06:00,37.2,22.5,29.83,North,351,4.0,5.0,55,0.00,,,0.00,Wunderground v.1.15,2013-02-24 23:06:00,
2013-02-24 18:16:00,36.9,22.2,29.83,WNW,293,4.0,5.0,55,0.00,,,0.00,Wunderground v.1.15,2013-02-24 23:16:00,
2013-02-24 18:21:00,36.9,22.2,29.83,WNW,296,4.0,4.0,55,0.00,,,0.00,Wunderground v.1.15,2013-02-24 23:21:00,
2013-02-24 18:26:00,36.6,21.9,29.83,NNW,327,3.0,6.0,55,0.00,,,0.00,Wunderground v.1.15,2013-02-24 23:26:00,
2013-02-24 18:31:00,36.5,21.8,29.84,WNW,294,4.0,8.0,55,0.00,,,0.00,Wunderground v.1.15,2013-02-24 23:31:00,
2013-02-24 18:36:00,36.3,21.7,29.84,NNW,348,4.0,8.0,55,0.00,,,0.00,Wunderground v.1.15,2013-02-24 23:36:00,
2013-02-24 18:41:00,36.2,21.6,29.84,WNW,299,3.0,3.0,55,0.00,,,0.00,Wunderground v.1.15,2013-02-24 23:41:00,
2013-02-24 18:51:00,35.9,21.7,29.85,North,360,3.0,4.0,56,0.00,,,0.00,Wunderground v.1.15,2013-02-24 23:51:00,
2013-02-24 18:56:00,35.8,21.6,29.85,NNW,335,3.0,4.0,56,0.00,,,0.00,Wunderground v.1.15,2013-02-24 23:56:00,
2013-02-24 19:01:00,35.6,21.4,29.86,WNW,301,2.0,2.0,56,0.00,,,0.00,Wunderground v.1.15,2013-02-25 00:01:00,
2013-02-24 19:06:00,35.5,21.8,29.86,NW,306,1.0,2.0,57,0.00,,,0.00,Wunderground v.1.15,2013-02-25 00:06:00,
2013-02-24 19:11:00,35.3,21.6,29.86,NW,322,1.0,1.0,57,0.00,,,0.00,Wunderground v.1.15,2013-02-25 00:11:00,
2013-02-24 19:16:00,35.2,21.5,29.86,NW,322,1.0,1.0,57,0.00,,,0.00,Wunderground v.1.15,2013-02-25 00:16:00,
2013-02-24 19:21:00,35.0,21.3,29.86,NW,322,0.0,1.0,57,0.00,,,0.00,Wunderground v.1.15,2013-02-25 00:21:00,
2013-02-24 19:31:00,34.7,21.8,29.87,NNW,336,1.0,2.0,59,0.00,,,0.00,Wunderground v.1.15,2013-02-25 00:31:00,
2013-02-24 19:36:00,34.7,21.8,29.87,WNW,295,2.0,2.0,59,0.00,,,0.00,Wunderground v.1.15,2013-02-25 00:36:00,
2013-02-24 19:41:00,34.6,21.7,29.87,NW,323,2.0,2.0,59,0.00,,,0.00,Wunderground v.1.15,2013-02-25 00:41:00,
2013-02-24 19:46:00,34.6,21.7,29.88,WNW,284,2.0,2.0,59,0.00,,,0.00,Wunderground v.1.15,2013-02-25 00:46:00,
2013-02-24 19:56:00,34.4,21.5,29.88,NNW,333,2.0,5.0,59,0.00,,,0.00,Wunderground v.1.15,2013-02-25 00:56:00,
2013-02-24 20:01:00,34.4,21.1,29.89,North,360,2.0,2.0,58,0.00,,,0.00,Wunderground v.1.15,2013-02-25 01:01:00,
2013-02-24 20:11:00,34.4,21.1,29.89,North,360,3.0,3.0,58,0.00,,,0.00,Wunderground v.1.15,2013-02-25 01:11:00,
2013-02-24 20:16:00,34.3,-99.9,29.89,NW,306,2.0,3.0,255,0.00,,,0.00,Wunderground v.1.15,2013-02-25 01:16:00,
2013-02-24 20:21:00,34.1,20.9,29.89,NNW,334,1.0,1.0,58,0.00,,,0.00,Wunderground v.1.15,2013-02-25 01:21:00,
2013-02-24 20:31:00,34.0,20.8,29.90,NW,311,1.0,1.0,58,0.00,,,0.00,Wunderground v.1.15,2013-02-25 01:31:00,
2013-02-24 20:36:00,34.0,20.8,29.90,West,259,1.0,1.0,58,0.00,,,0.00,Wunderground v.1.15,2013-02-25 01:36:00,
2013-02-24 20:41:00,33.8,20.6,29.90,West,276,1.0,1.0,58,0.00,,,0.00,Wunderground v.1.15,2013-02-25 01:41:00,
2013-02-24 20:46:00,33.7,20.5,29.91,WNW,290,1.0,1.0,58,0.00,,,0.00,Wunderground v.1.15,2013-02-25 01:46:00,
2013-02-24 20:51:00,33.5,20.7,29.91,WNW,290,0.0,0.0,59,0.00,,,0.00,Wunderground v.1.15,2013-02-25 01:51:00,
2013-02-24 20:56:00,33.4,20.6,29.91,WNW,290,0.0,0.0,59,0.00,,,0.00,Wunderground v.1.15,2013-02-25 01:56:00,
2013-02-24 21:01:00,33.2,20.4,29.91,North,360,0.0,0.0,59,0.00,,,0.00,Wunderground v.1.15,2013-02-25 02:01:00,
2013-02-24 21:11:00,32.9,20.5,29.91,West,279,0.0,0.0,60,0.00,,,0.00,Wunderground v.1.15,2013-02-25 02:11:00,
2013-02-24 21:21:00,32.8,20.4,29.91,NNW,344,1.0,1.0,60,0.00,,,0.00,Wunderground v.1.15,2013-02-25 02:21:00,
2013-02-24 21:26:00,32.8,20.4,29.91,NNW,338,1.0,1.0,60,0.00,,,0.00,Wunderground v.1.15,2013-02-25 02:26:00,
2013-02-24 21:31:00,32.9,20.5,29.92,NNW,343,1.0,1.0,60,0.00,,,0.00,Wunderground v.1.15,2013-02-25 02:31:00,
2013-02-24 21:36:00,32.9,20.5,29.92,NNW,343,1.0,1.0,60,0.00,,,0.00,Wunderground v.1.15,2013-02-25 02:36:00,
2013-02-24 21:41:00,32.8,20.4,29.92,North,351,0.0,0.0,60,0.00,,,0.00,Wunderground v.1.15,2013-02-25 02:41:00,
2013-02-24 21:46:00,32.7,20.3,29.92,WNW,291,1.0,1.0,60,0.00,,,0.00,Wunderground v.1.15,2013-02-25 02:46:00,
2013-02-24 21:51:00,32.7,20.3,29.92,WNW,300,1.0,2.0,60,0.00,,,0.00,Wunderground v.1.15,2013-02-25 02:51:00,
2013-02-24 21:56:00,32.7,20.3,29.92,NW,319,1.0,6.0,60,0.00,,,0.00,Wunderground v.1.15,2013-02-25 02:56:00,
2013-02-24 22:06:00,32.7,19.9,29.92,North,351,2.0,2.0,59,0.00,,,0.00,Wunderground v.1.15,2013-02-25 03:06:00,
2013-02-24 22:11:00,32.5,19.7,29.92,NW,315,1.0,1.0,59,0.00,,,0.00,Wunderground v.1.15,2013-02-25 03:11:00,
2013-02-24 22:16:00,32.4,19.7,29.92,NW,315,0.0,1.0,59,0.00,,,0.00,Wunderground v.1.15,2013-02-25 03:16:00,
2013-02-24 22:21:00,32.2,19.9,29.92,NW,315,0.0,0.0,60,0.00,,,0.00,Wunderground v.1.15,2013-02-25 03:21:00,
2013-02-24 22:26:00,31.9,19.6,29.92,NW,315,0.0,0.0,60,0.00,,,0.00,Wunderground v.1.15,2013-02-25 03:26:00,
2013-02-24 22:31:00,31.6,19.3,29.92,NW,315,0.0,0.0,60,0.00,,,0.00,Wunderground v.1.15,2013-02-25 03:31:00,
2013-02-24 22:36:00,31.3,19.4,29.92,NW,315,0.0,1.0,61,0.00,,,0.00,Wunderground v.1.15,2013-02-25 03:36:00,
2013-02-24 22:46:00,31.2,19.7,29.92,North,5,0.0,5.0,62,0.00,,,0.00,Wunderground v.1.15,2013-02-25 03:46:00,
2013-02-24 22:56:00,31.0,19.9,29.92,NW,309,0.0,2.0,63,0.00,,,0.00,Wunderground v.1.15,2013-02-25 03:56:00,
2013-02-24 23:01:00,31.0,19.9,29.92,NW,322,1.0,1.0,63,0.00,,,0.00,Wunderground v.1.15,2013-02-25 04:01:00,
2013-02-24 23:06:00,31.0,19.9,29.92,NW,322,0.0,1.0,63,0.00,,,0.00,Wunderground v.1.15,2013-02-25 04:06:00,
2013-02-24 23:11:00,31.0,19.9,29.92,NW,322,0.0,0.0,63,0.00,,,0.00,Wunderground v.1.15,2013-02-25 04:11:00,
2013-02-24 23:16:00,30.9,19.8,29.93,NW,322,0.0,0.0,63,0.00,,,0.00,Wunderground v.1.15,2013-02-25 04:16:00,
2013-02-24 23:21:00,30.7,19.6,29.93,NW,322,0.0,0.0,63,0.00,,,0.00,Wunderground v.1.15,2013-02-25 04:21:00,
2013-02-24 23:26:00,30.7,19.6,29.93,NW,322,0.0,0.0,63,0.00,,,0.00,Wunderground v.1.15,2013-02-25 04:26:00,
2013-02-24 23:36:00,30.6,19.5,29.93,NW,322,0.0,0.0,63,0.00,,,0.00,Wunderground v.1.15,2013-02-25 04:36:00,
2013-02-24 23:41:00,30.4,19.7,29.93,NW,322,0.0,0.0,64,0.00,,,0.00,Wunderground v.1.15,2013-02-25 04:41:00,
2013-02-24 23:46:00,30.3,19.6,29.93,NW,322,0.0,0.0,64,0.00,,,0.00,Wunderground v.1.15,2013-02-25 04:46:00,
2013-02-24 23:51:00,30.1,19.4,29.93,NW,322,0.0,0.0,64,0.00,,,0.00,Wunderground v.1.15,2013-02-25 04:51:00,
2013-02-24 23:56:00,30.0,19.3,29.93,NW,322,0.0,0.0,64,0.00,,,0.00,Wunderground v.1.15,2013-02-25 04:56:00,